When you browse on this site, cookies collect data to enhance your experience and personalize the content and advertising you see.
Visit our Privacy Policy to learn more. By continuing to use the site, you agree to this use of cookies and data.
  • In Hungary
  • List of Countries
  • For 7 days
  • Water Temperature
  • Weather Map
  • News
  • Weather Widgets
  • user-avatar
    Login

    Hourly Weather Oblivnoy

    Today, 20 October, Sunday

    Time Temperature Precipitation Wind Pressure Humidity
    00:00 +13°C° 0 mm 2 mps 761 mmHg 72%
    01:00 +13°C° 0 mm 2 mps 761 mmHg 73%
    02:00 +13°C° 0 mm 2 mps 761 mmHg 74%
    03:00 +12°C° 0 mm 2 mps 762 mmHg 77%
    04:00 +12°C° 0 mm 2 mps 762 mmHg 78%
    05:00 +12°C° 0 mm 2 mps 762 mmHg 79%
    06:00 +10°C° 0 mm 2 mps 763 mmHg 79%
    07:00 +12°C° 0 mm 3 mps 763 mmHg 74%
    08:00 +13°C° 0 mm 3 mps 763 mmHg 68%
    09:00 +16°C° 0 mm 3 mps 763 mmHg 61%
    10:00 +17°C° 0 mm 3 mps 763 mmHg 55%
    11:00 +19°C° 0 mm 3 mps 763 mmHg 50%
    12:00 +21°C° 0 mm 4 mps 763 mmHg 45%
    13:00 +21°C° 0 mm 3 mps 763 mmHg 43%
    14:00 +22°C° 0 mm 3 mps 763 mmHg 42%
    15:00 +22°C° 0 mm 3 mps 763 mmHg 41%
    16:00 +20°C° 0 mm 3 mps 763 mmHg 47%
    17:00 +19°C° 0 mm 3 mps 763 mmHg 53%
    18:00 +17°C° 0 mm 3 mps 763 mmHg 59%
    19:00 +16°C° 0 mm 3 mps 763 mmHg 61%
    20:00 +16°C° 0 mm 3 mps 763 mmHg 63%
    21:00 +14°C° 0 mm 3 mps 763 mmHg 66%
    22:00 +13°C° 0 mm 3 mps 763 mmHg 68%
    23:00 +13°C° 0 mm 3 mps 764 mmHg 70%

    Tomorrow, 21 October, Monday

    Time Temperature Precipitation Wind Pressure Humidity
    00:00 +13°C° 0 mm 3 mps 764 mmHg 72%
    01:00 +12°C° 0 mm 3 mps 764 mmHg 75%
    02:00 +12°C° 0 mm 3 mps 764 mmHg 78%
    03:00 +11°C° 0 mm 3 mps 764 mmHg 82%
    04:00 +11°C° 0 mm 3 mps 764 mmHg 81%
    05:00 +11°C° 0 mm 3 mps 764 mmHg 81%
    06:00 +10°C° 0 mm 3 mps 764 mmHg 81%
    07:00 +12°C° 0 mm 3 mps 764 mmHg 74%
    08:00 +13°C° 0 mm 3 mps 765 mmHg 67%
    09:00 +15°C° 0 mm 4 mps 765 mmHg 59%
    10:00 +17°C° 0 mm 4 mps 765 mmHg 54%
    11:00 +19°C° 0 mm 4 mps 765 mmHg 49%
    12:00 +20°C° 0 mm 4 mps 764 mmHg 43%
    13:00 +21°C° 0 mm 4 mps 764 mmHg 42%
    14:00 +21°C° 0 mm 4 mps 764 mmHg 40%
    15:00 +21°C° 0 mm 3 mps 764 mmHg 39%
    16:00 +19°C° 0 mm 3 mps 764 mmHg 44%
    17:00 +18°C° 0 mm 3 mps 763 mmHg 49%
    18:00 +16°C° 0 mm 3 mps 763 mmHg 54%
    19:00 +14°C° 0 mm 3 mps 763 mmHg 57%
    20:00 +14°C° 0 mm 3 mps 763 mmHg 59%
    21:00 +14°C° 0 mm 2 mps 763 mmHg 61%
    22:00 +13°C° 0 mm 2 mps 763 mmHg 63%
    23:00 +13°C° 0 mm 2 mps 763 mmHg 65%

    Day after tomorrow, 22 October, Tuesday

    Time Temperature Precipitation Wind Pressure Humidity
    00:00 +13°C° 0 mm 2 mps 763 mmHg 67%
    01:00 +12°C° 0 mm 1 mps 763 mmHg 69%
    02:00 +12°C° 0 mm 1 mps 763 mmHg 71%
    03:00 +12°C° 0 mm 1 mps 763 mmHg 73%
    04:00 +11°C° 0 mm 1 mps 763 mmHg 74%
    05:00 +11°C° 0 mm 1 mps 763 mmHg 75%
    06:00 +11°C° 0 mm 1 mps 763 mmHg 76%
    07:00 +12°C° 0 mm 1 mps 763 mmHg 71%
    08:00 +14°C° 0 mm 1 mps 763 mmHg 66%
    09:00 +15°C° 0 mm 1 mps 763 mmHg 61%
    10:00 +16°C° 0 mm 1 mps 763 mmHg 56%
    11:00 +19°C° 0 mm 1 mps 763 mmHg 50%
    12:00 +20°C° 0 mm 1 mps 763 mmHg 45%
    13:00 +20°C° 0 mm 1 mps 763 mmHg 44%
    14:00 +21°C° 0 mm 1 mps 762 mmHg 43%
    15:00 +21°C° 0 mm 1 mps 762 mmHg 41%
    16:00 +20°C° 0 mm 1 mps 762 mmHg 45%
    17:00 +18°C° 0 mm 1 mps 762 mmHg 49%
    18:00 +16°C° 0 mm 1 mps 762 mmHg 53%
    19:00 +16°C° 0 mm 1 mps 762 mmHg 55%
    20:00 +15°C° 0 mm 1 mps 762 mmHg 57%
    21:00 +15°C° 0 mm 1 mps 762 mmHg 59%
    22:00 +14°C° 0 mm 1 mps 762 mmHg 60%
    23:00 +14°C° 0 mm 1 mps 762 mmHg 62%

    23 October, Wednesday

    Time Temperature Precipitation Wind Pressure Humidity
    00:00 +13°C° 0 mm 1 mps 762 mmHg 63%
    01:00 +12°C° 0 mm 0 mps 762 mmHg 64%
    02:00 +12°C° 0 mm 0 mps 762 mmHg 65%
    03:00 +11°C° 0 mm 0 mps 762 mmHg 66%
    04:00 +11°C° 0 mm 0 mps 762 mmHg 68%
    05:00 +11°C° 0 mm 0 mps 763 mmHg 69%
    06:00 +11°C° 0 mm 1 mps 763 mmHg 70%
    07:00 +13°C° 0 mm 1 mps 763 mmHg 66%
    08:00 +14°C° 0 mm 1 mps 763 mmHg 62%
    09:00 +15°C° 0 mm 1 mps 763 mmHg 58%
    10:00 +17°C° 0 mm 2 mps 763 mmHg 54%
    11:00 +18°C° 0 mm 2 mps 763 mmHg 50%
    12:00 +19°C° 0 mm 2 mps 763 mmHg 46%
    13:00 +20°C° 0 mm 2 mps 763 mmHg 46%
    14:00 +20°C° 0 mm 2 mps 762 mmHg 45%
    15:00 +20°C° 0 mm 2 mps 762 mmHg 45%
    16:00 +19°C° 0 mm 2 mps 762 mmHg 51%
    17:00 +17°C° 0 mm 2 mps 762 mmHg 58%
    18:00 +16°C° 0 mm 2 mps 762 mmHg 64%
    19:00 +15°C° 0 mm 2 mps 762 mmHg 68%
    20:00 +14°C° 0 mm 2 mps 762 mmHg 71%
    21:00 +14°C° 0 mm 2 mps 762 mmHg 75%
    22:00 +13°C° 0 mm 2 mps 762 mmHg 76%
    23:00 +13°C° 0 mm 2 mps 762 mmHg 77%

    24 October, Thursday

    Time Temperature Precipitation Wind Pressure Humidity
    00:00 +12°C° 0 mm 2 mps 762 mmHg 78%
    01:00 +12°C° 0 mm 2 mps 762 mmHg 77%
    02:00 +12°C° 0 mm 2 mps 762 mmHg 77%
    03:00 +12°C° 0 mm 2 mps 762 mmHg 76%
    04:00 +10°C° 0 mm 2 mps 762 mmHg 75%
    05:00 +10°C° 0 mm 2 mps 762 mmHg 74%
    06:00 +10°C° 0 mm 2 mps 762 mmHg 73%
    07:00 +12°C° 0 mm 2 mps 762 mmHg 66%
    08:00 +13°C° 0 mm 2 mps 762 mmHg 60%
    09:00 +15°C° 0 mm 2 mps 762 mmHg 54%
    10:00 +16°C° 0 mm 3 mps 762 mmHg 49%
    11:00 +18°C° 0 mm 3 mps 762 mmHg 44%
    12:00 +19°C° 0 mm 4 mps 761 mmHg 38%
    13:00 +20°C° 0 mm 4 mps 761 mmHg 38%
    14:00 +20°C° 0 mm 4 mps 761 mmHg 39%
    15:00 +20°C° 0 mm 4 mps 760 mmHg 39%
    16:00 +19°C° 0 mm 4 mps 760 mmHg 44%
    17:00 +17°C° 0 mm 3 mps 760 mmHg 50%
    18:00 +14°C° 0 mm 3 mps 760 mmHg 55%
    19:00 +14°C° 0 mm 3 mps 760 mmHg 58%
    20:00 +13°C° 0 mm 3 mps 760 mmHg 61%
    21:00 +13°C° 0 mm 3 mps 760 mmHg 64%
    22:00 +12°C° 0 mm 3 mps 760 mmHg 66%
    23:00 +12°C° 0 mm 3 mps 760 mmHg 69%

    25 October, Friday

    Time Temperature Precipitation Wind Pressure Humidity
    00:00 +11°C° 0 mm 3 mps 760 mmHg 72%
    01:00 +11°C° 0 mm 3 mps 760 mmHg 73%
    02:00 +11°C° 0 mm 3 mps 760 mmHg 74%
    03:00 +10°C° 0 mm 3 mps 760 mmHg 76%
    04:00 +10°C° 0 mm 4 mps 760 mmHg 76%
    05:00 +10°C° 0 mm 4 mps 760 mmHg 75%
    06:00 +10°C° 0 mm 4 mps 760 mmHg 75%
    07:00 +11°C° 0 mm 4 mps 760 mmHg 69%
    08:00 +12°C° 0 mm 5 mps 760 mmHg 62%
    09:00 +13°C° 0 mm 5 mps 760 mmHg 56%
    10:00 +14°C° 0 mm 5 mps 760 mmHg 52%
    11:00 +15°C° 0 mm 6 mps 760 mmHg 47%
    12:00 +16°C° 0 mm 6 mps 760 mmHg 43%
    13:00 +17°C° 0 mm 6 mps 760 mmHg 48%
    14:00 +17°C° 0 mm 6 mps 759 mmHg 52%
    15:00 +17°C° 0 mm 6 mps 759 mmHg 56%
    16:00 +16°C° 0 mm 5 mps 759 mmHg 57%
    17:00 +16°C° 0 mm 5 mps 759 mmHg 59%
    18:00 +17°C° 0 mm 4 mps 759 mmHg 60%
    19:00 +17°C° 0 mm 4 mps 759 mmHg 57%
    20:00 +16°C° 0 mm 5 mps 759 mmHg 54%
    21:00 +16°C° 0 mm 5 mps 759 mmHg 50%
    22:00 +15°C° 0 mm 5 mps 759 mmHg 52%
    23:00 +15°C° 0 mm 5 mps 758 mmHg 53%
    Show more